Find Starlink 31280

NORAD ID: 58843 Int'l Des: 2024-017 Owner: SPXS Country: US Constellation: starlink operational
LEOCIRCULAR

Live-Position

3D-Globus wird geladen...

Über Starlink 31280

Beschreibung wird geladen...

Nächste Überflüge

Passes for default location (London). Set your location on the main map for personalized predictions.

Höhenverlauf

Loading altitude history...

Zweizeiliger Elementsatz

1 58843U 24017T 26129.75729528 -.00000995 00000-0 -21487-4 0 9998
2 58843 53.1609 280.8280 0001052 83.1185 276.9935 15.30194943129402
Epoch: 9. Mai 2026 • Age: 28 hours

Aktueller Status

Höhe 485.8 km
Geschwindigkeit 7.62 km/s
Subsatellitenpunkt -32.45°S, 45.27°E
Startdatum 24. Jan. 2024
Alter 2.2 years
Typ internet

Technische Details

Klassifizierung Payload
Masse 730.00 kg
Trockenmasse 700.00 kg
Gesamtmasse 730.00 kg
Länge 0.30 m
Durchmesser 4.10 m
Spannweite 29.00 m
Form Box + pan
Hersteller SPXS
Bus-Typ Starlink V2M
Phasenstatus In Orbit
Besitzer/Staat SPXS/US

Most Searched